Location: Bismarck
(46.7731°N, 100.8200°W)
Time: 19:33:40
(UTC-05:00)

ISS - All Passes

Search period start: 24 July 2017 00:00
Search period end: 03 August 2017 00:00
Orbit: 400 x 408 km, 51.6° (Epoch: 25 July)

Date Brightness Start Highest point End Pass type
(mag) Time Alt. Az. Time Alt. Az. Time Alt. Az.
24 Jul - 00:07:11 10° W 00:10:24 58° NNW 00:13:37 10° ENE visible
24 Jul - 01:44:16 10° WNW 01:47:16 33° N 01:50:16 10° ENE visible
24 Jul - 03:20:55 10° WNW 03:24:08 56° NNE 03:27:22 10° E visible
24 Jul - 04:57:35 10° W 05:00:29 30° SW 05:03:23 10° SSE visible
24 Jul - 21:39:44 10° S 21:41:56 17° SE 21:44:09 10° E daylight
24 Jul - 23:14:47 10° WSW 23:18:03 85° NNW 23:21:18 10° ENE visible
25 Jul - 00:51:46 10° WNW 00:54:47 34° N 00:57:50 10° ENE visible
25 Jul - 02:28:35 10° WNW 02:31:44 42° NNE 02:34:52 10° E visible
25 Jul - 04:05:05 10° WNW 04:08:16 51° SSW 04:11:27 10° SE visible
25 Jul - 22:22:32 10° SW 22:25:44 59° SSE 22:28:57 10° ENE visible
25 Jul - 23:59:14 10° W 00:02:19 40° NNW 00:05:26 10° ENE visible
26 Jul - 01:36:13 10° WNW 01:39:16 35° N 01:42:19 10° ENE visible
26 Jul - 03:12:42 10° WNW 03:15:59 84° SSW 03:19:14 10° ESE visible
26 Jul - 04:50:06 10° W 04:52:01 15° SW 04:53:56 10° S night (unlit)
26 Jul - 21:30:30 10° SSW 21:33:29 34° SE 21:36:29 10° ENE daylight
26 Jul - 23:06:42 10° W 23:09:53 51° NNW 23:13:05 10° ENE visible
27 Jul - 00:43:46 10° WNW 00:46:46 33° N 00:49:47 10° ENE visible
27 Jul - 02:20:22 10° WNW 02:23:37 64° NNE 02:26:51 10° ESE visible
27 Jul - 03:57:08 10° W 03:59:52 25° SW 04:02:37 10° SSE night (unlit)
27 Jul - 20:38:47 10° S 20:41:17 20° SE 20:43:47 10° E daylight
27 Jul - 22:14:13 10° WSW 22:17:28 74° NNW 22:20:44 10° ENE visible
27 Jul - 23:51:15 10° WNW 23:54:16 33° N 23:57:17 10° ENE visible
28 Jul - 01:28:00 10° WNW 01:31:10 46° NNE 01:34:20 10° E visible
28 Jul - 03:04:33 10° WNW 03:07:39 42° SW 03:10:45 10° SE visible
28 Jul - 19:47:50 10° SSE 19:49:09 12° SE 19:50:27 10° ESE daylight
28 Jul - 21:21:52 10° SW 21:25:06 71° SSE 21:28:21 10° ENE daylight
28 Jul - 22:58:41 10° W 23:01:45 37° N 23:04:50 10° ENE visible
29 Jul - 00:35:36 10° WNW 00:38:41 37° N 00:41:45 10° E visible
29 Jul - 02:12:05 10° WNW 02:15:21 72° SSW 02:18:35 10° SE visible
29 Jul - 03:49:55 10° WSW 03:51:19 12° SW 03:52:41 10° SSW night (unlit)
29 Jul - 20:29:42 10° SW 20:32:47 41° SE 20:35:53 10° ENE daylight
29 Jul - 22:06:05 10° W 22:09:15 46° NNW 22:12:26 10° ENE visible
29 Jul - 23:43:09 10° WNW 23:46:10 33° N 23:49:10 10° ENE visible
30 Jul - 01:19:41 10° WNW 01:22:58 73° NNE 01:26:12 10° ESE visible
30 Jul - 02:56:37 10° W 02:59:09 21° SW 03:01:40 10° S night (unlit)
30 Jul - 19:37:49 10° SSW 19:40:31 24° SE 19:43:15 10° E daylight
30 Jul - 21:13:33 10° WSW 21:16:47 65° NNW 21:20:02 10° ENE daylight
30 Jul - 22:50:37 10° WNW 22:53:37 33° N 22:56:36 10° ENE visible
31 Jul - 00:27:18 10° WNW 00:30:30 51° NNE 00:33:41 10° E visible
31 Jul - 02:03:54 10° WNW 02:06:54 35° SW 02:09:55 10° SSE visible
31 Jul - 18:46:28 10° S 18:48:19 14° SE 18:50:11 10° E daylight
31 Jul - 20:21:06 10° WSW 20:24:22 83° SSE 20:27:37 10° ENE daylight
31 Jul - 21:58:00 10° WNW 22:01:04 36° N 22:04:06 10° ENE visible
31 Jul - 23:34:53 10° WNW 23:37:59 39° NNE 23:41:06 10° E visible
01 Aug - 01:11:22 10° WNW 01:14:35 60° SSW 01:17:48 10° SE visible
01 Aug - 19:28:49 10° SW 19:31:59 50° SSE 19:35:09 10° ENE daylight
01 Aug - 21:05:23 10° W 21:08:31 43° NNW 21:11:39 10° ENE daylight
01 Aug - 22:42:24 10° WNW 22:45:26 34° N 22:48:27 10° ENE visible
02 Aug - 00:18:55 10° WNW 00:22:11 84° NNE 00:25:26 10° ESE visible
02 Aug - 01:56:02 10° W 01:58:17 17° SW 02:00:32 10° S visible
02 Aug - 18:36:48 10° SSW 18:39:40 29° SE 18:42:33 10° E daylight
02 Aug - 20:12:47 10° W 20:16:00 57° NNW 20:19:13 10° ENE daylight
02 Aug - 21:49:51 10° WNW 21:52:51 33° N 21:55:51 10° ENE visible
02 Aug - 23:26:30 10° WNW 23:29:42 57° NNE 23:32:55 10° E visible
